Regional Weather Roundup
Issued by NWS

Home | Current Version | Previous Version | Text Only | Print | Product List | Glossary Off
Versions: 1 2 3 4 5 6 7 8 9 10 11 12 13 14 15 16 17 18 19 20 21 22 23 24 25 26 27 28 29 30 31 32 33 34 35 36 37 38 39 40 41 42 43 44 45 46 47 48 49 50

000
ASUS43 KLMK 281902
RWRKY
KENTUCKY REGIONAL WEATHER ROUNDUP
NATIONAL WEATHER SERVICE LOUISVILLE KY
300 PM EDT SUN AUG 28 2016

NOTE "FAIR" INDICATES FEW OR NO CLOUDS BELOW 12,000 FEET
WITH NO SIGNIFICANT WEATHER AND/OR OBSTRUCTIONS TO VISIBILITY.

KYZ001>023-026-027-061>063-070>075-282000-
WESTERN AND SOUTH CENTRAL KENTUCKY

CITY           SKY/WX    TMP DP  RH WIND       PRES   REMARKS
PADUCAH        MOSUNNY   93  74  53 NE3       30.13F HX 103
HENDERSON      CLOUDY    82  72  69 W5        30.14S
OWENSBORO      PTSUNNY   93  76  57 NE8       30.14F HX 105
HOPKINSVILLE   SUNNY     91  71  51 VRB3      30.13F HX  98
BOWLING GREEN  MOSUNNY   94  71  47 VRB3      30.15F HX 101
GLASGOW        SUNNY     92  71  49 NE3       30.16F HX  98
$$

KYZ024-025-028>034-038-045-046-053-282000-
NORTH CENTRAL KENTUCKY

CITY           SKY/WX    TMP DP  RH WIND       PRES   REMARKS
LOUISVILLE/SDF MOSUNNY   92  70  48 N6        30.14F HX  97
LOUISVILLE/LOU PTSUNNY   92  70  48 E7        30.15F HX  97
FORT KNOX      PTSUNNY   90  74  59 NW3       30.15F HX  98
$$

KYZ035>037-039>044-047>052-055>060-089>105-282000-
NORTHEAST KENTUCKY

CITY           SKY/WX    TMP DP  RH WIND       PRES   REMARKS
LEXINGTON      CLOUDY    80  67  64 E24G31    30.17F THUNDER
COVINGTON      MOSUNNY   91  72  53 E5        30.17F HX  98
FRANKFORT      PTSUNNY   91  73  55 VRB6      30.14F HX  99
$$

KYZ054-064>069-076>088-106>120-282000-
SOUTHEAST KENTUCKY

CITY           SKY/WX    TMP DP  RH WIND       PRES   REMARKS
JACKSON        MOSUNNY   89  75  63 CALM      30.18F HX  99
LONDON         SUNNY     88  69  53 VRB6      30.18F HX  92
SOMERSET       CLOUDY    90  68  48 NE5       30.17F HX  93
MIDDLESBORO    MOSUNNY   90  71  52 CALM      30.17F HX  96
MONTICELLO     CLEAR    N/A N/A N/A N16       30.18F
$$





USA.gov is the U.S. government's official web portal to all federal, state and local government web resources and services.